Jackson Hawkins Field, MS

4:44 PM CDT on March 24, 2017 (GMT -0500)
Hawkins

Weather History for KHKS - April, 2013

Change the Weather History Date:

Tuesday, April 23, 2013

  Actual Average (KJAN) Record (KJAN)
Temperature  
Mean Temperature 72 °F -  
Max Temperature 82 °F 78 °F 93 °F (1925)
Min Temperature 62 °F 55 °F 35 °F (1903)
Cooling Degree Days 6    
Growing Degree Days 22 (Base 50)    
Moisture  
Dew Point 61 °F    
Average Humidity 72    
Maximum Humidity 87    
Minimum Humidity 52    
Precipitation  
Precipitation 0.00 in - - ()
Sea Level Pressure  
Sea Level Pressure 30.02 in    
Wind  
Wind Speed 10 mph (SSE)    
Max Wind Speed 16 mph    
Max Gust Speed 22 mph    
Visibility 10 miles    
Events      
Averages and records for this station are not official NWS values.
T = Trace of Precipitation, MM = Missing Value Source: NWS Daily Summary

Daily Weather History Graph

Daily Weather History Graph

Search for Another Location

Airport or City:

Trip Planner

Search our weather history database for the weather conditions in past years. The results will help you decide how hot, cold, wet, or windy it might be!

Date:

Astronomy

Apr. 23, 2013 Rise Set
Actual Time 6:22 AM CDT 7:36 PM CDT
Civil Twilight 5:56 AM CDT 8:02 PM CDT
Nautical Twilight 5:26 AM CDT 8:32 PM CDT
Astronomical Twilight 4:54 AM CDT 9:04 PM CDT
Moon 5:37 PM CDT (4/23) 4:42 AM CDT (4/23)
Length of Visible Light 14h 05m
Length of Day
13h 14m
Waxing Gibbous, 94% of the Moon is Illuminated
Apr 23
Waxing Gibbous
Apr 25
Full
May 2
Last Quarter
May 9
New
May 17
First Quarter

Hourly Weather History & Observations

Time (CDT) Temp. Heat Index Dew Point Humidity Pressure Visibility Wind Dir Wind Speed Gust Speed Precip Events Conditions
12:53 AM 64.0 °F - 55.9 °F 75% 30.04 in 10.0 mi SSE 6.9 mph - N/A   Scattered Clouds
1:53 AM 63.0 °F - 57.9 °F 84% 30.04 in 10.0 mi SE 6.9 mph - N/A   Scattered Clouds
2:14 AM 62.6 °F - 57.2 °F 82% 30.06 in 10.0 mi SE 9.2 mph - N/A   Mostly Cloudy
2:53 AM 64.0 °F - 60.1 °F 87% 30.03 in 9.0 mi SSE 11.5 mph - N/A   Overcast
3:53 AM 64.9 °F - 60.1 °F 84% 30.02 in 9.0 mi SSE 16.1 mph - N/A   Overcast
4:13 AM 64.4 °F - 59.0 °F 83% 30.04 in 9.0 mi SE 10.4 mph 21.9 mph N/A   Overcast
4:53 AM 64.9 °F - 59.0 °F 81% 30.02 in 9.0 mi SSE 13.8 mph 17.3 mph N/A   Overcast
5:53 AM 64.9 °F - 59.0 °F 81% 30.02 in 8.0 mi SSE 10.4 mph - N/A   Overcast
6:53 AM 64.9 °F - 59.0 °F 81% 30.04 in 9.0 mi South 10.4 mph - N/A   Overcast
7:53 AM 66.0 °F - 59.0 °F 78% 30.05 in 10.0 mi SSE 9.2 mph - N/A   Overcast
8:53 AM 68.0 °F - 60.1 °F 76% 30.06 in 10.0 mi SSE 8.1 mph - N/A   Overcast
9:53 AM 68.0 °F - 60.1 °F 76% 30.07 in 10.0 mi South 13.8 mph - N/A   Overcast
10:53 AM 69.1 °F - 60.1 °F 73% 30.07 in 10.0 mi South 12.7 mph - N/A   Overcast
11:34 AM 71.6 °F - 60.8 °F 69% 30.09 in 10.0 mi South 8.1 mph - N/A   Overcast
11:53 AM 71.1 °F - 61.0 °F 70% 30.06 in 10.0 mi SSE 10.4 mph - N/A   Overcast
12:53 PM 73.9 °F - 61.0 °F 64% 30.05 in 10.0 mi South 5.8 mph - N/A   Overcast
1:53 PM 78.1 °F - 62.1 °F 58% 30.02 in 10.0 mi South 10.4 mph 18.4 mph N/A   Mostly Cloudy
2:00 PM 77.0 °F - 62.6 °F 61% 30.04 in 10.0 mi South 10.4 mph - N/A   Mostly Cloudy
2:53 PM 80.1 °F 81.2 °F 62.1 °F 54% 30.00 in 10.0 mi South 11.5 mph - N/A   Mostly Cloudy
3:53 PM 78.1 °F - 61.0 °F 56% 29.97 in 10.0 mi South 9.2 mph - N/A   Scattered Clouds
4:53 PM 81.0 °F 81.9 °F 62.1 °F 52% 29.95 in 10.0 mi SSE 8.1 mph - N/A   Mostly Cloudy
5:53 PM 81.0 °F 81.9 °F 62.1 °F 52% 29.94 in 10.0 mi SE 10.4 mph - N/A   Mostly Cloudy
6:53 PM 78.1 °F - 62.1 °F 58% 29.93 in 10.0 mi SSE 8.1 mph - N/A   Clear
7:53 PM 73.0 °F - 61.0 °F 66% 29.94 in 10.0 mi SSE 6.9 mph - N/A   Clear
8:53 PM 73.0 °F - 62.1 °F 68% 29.96 in 10.0 mi SSE 10.4 mph - N/A   Clear
9:53 PM 72.0 °F - 63.0 °F 73% 29.98 in 10.0 mi SSE 11.5 mph - N/A   Clear
10:53 PM 71.1 °F - 64.0 °F 78% 29.99 in 10.0 mi South 11.5 mph 21.9 mph N/A   Mostly Cloudy
11:39 PM 69.8 °F - 64.4 °F 83% 30.02 in 10.0 mi SSE 11.5 mph - N/A   Overcast
11:53 PM 69.1 °F - 64.0 °F 84% 29.99 in 10.0 mi South 11.5 mph - N/A   Mostly Cloudy